Wind_Speed
13 13 12 12 11 10 9 8 8 7 6 5 5 5 4 4 3 3 2 2 1 1 1 1 1 0 0 1 1 1 1 1 1 2 2 2 2 2 3 3 4 4 5
15 15 14 13 13 12 11 10 9 8 8 7 6 5 5 5 4 4 3 2 2 2 2 2 1 2 1 1 1 1 0 0 1 1 1 1 1 1 2 2 3 4 5
16 16 15 15 14 14 13 12 11 9 9 8 7 7 6 6 5 5 4 4 3 3 3 3 2 2 2 2 2 2 1 1 1 1 1 1 1 1 1 1 2 3 4
18 17 17 16 16 15 14 13 13 11 10 9 9 8 7 7 6 6 5 5 5 5 4 4 3 3 3 3 3 3 3 2 2 2 2 1 2 2 1 1 2 2 3
19 18 18 17 17 16 15 15 14 13 12 11 10 9 8 8 7 7 6 6 6 6 6 5 5 5 4 4 4 4 4 4 4 3 3 3 2 2 2 2 2 3 3
21 20 19 19 18 18 17 16 15 14 13 12 12 11 10 9 8 8 8 7 7 7 6 6 6 5 6 6 5 5 5 5 5 5 4 4 4 3 3 4 4 4 4
23 22 21 20 20 19 18 17 17 16 15 14 13 13 12 11 10 9 9 8 8 8 7 7 7 7 7 6 6 6 6 6 6 6 6 5 5 5 5 5 5 5 6
24 23 23 22 21 21 20 19 18 18 17 16 15 15 14 13 12 11 10 9 9 9 8 8 8 8 8 8 8 8 8 7 7 7 7 7 7 7 6 6 6 6 6
26 25 24 24 23 22 22 21 20 19 18 17 17 16 16 15 14 13 12 11 10 10 9 9 8 8 8 9 9 9 9 9 8 8 8 8 7 7 7 7 7 7 7
28 27 25 25 24 24 23 22 22 21 20 19 18 17 17 16 15 14 13 12 12 11 11 10 10 10 10 9 9 10 10 10 10 9 9 9 9 9 9 9 9 9 9
29 28 27 27 26 25 24 24 23 22 22 20 19 19 19 18 17 16 15 14 13 13 12 12 11 11 11 11 11 11 11 11 11 11 11 11 11 11 11 10 10 10 11
30 30 29 28 27 27 26 25 25 24 23 22 21 21 20 20 19 18 17 16 15 14 14 14 13 13 12 12 12 12 13 13 12 12 12 12 12 12 12 12 12 12 12
32 31 30 29 29 28 28 27 27 26 25 24 23 23 22 22 21 20 19 18 17 16 16 15 15 15 14 14 14 14 14 14 14 14 13 13 14 14 13 13 13 13 14
34 33 32 31 30 30 29 29 29 28 27 27 26 25 25 24 23 22 21 20 19 19 18 17 17 17 16 16 15 15 15 15 15 15 15 15 15 15 15 15 15 15 15
37 35 34 33 32 31 31 30 30 30 29 29 28 27 26 26 25 24 24 23 22 21 20 19 19 18 18 18 18 18 17 17 17 17 17 17 17 17 17 17 17 17 17
39 38 37 35 34 33 32 31 30 30 29 29 30 29 28 28 27 26 25 24 23 23 22 22 21 20 20 20 19 19 19 18 19 19 19 18 18 19 19 19 19 19 19
41 40 39 38 36 35 34 33 32 32 31 30 29 30 30 29 28 28 27 27 26 25 24 24 23 22 22 21 21 21 20 20 20 20 20 20 20 20 21 21 21 21 21
43 42 41 40 38 37 36 35 34 34 33 32 31 30 30 29 29 29 29 28 27 27 26 26 25 24 24 23 23 23 23 22 22 22 22 22 22 22 22 23 23 23 23
45 44 43 42 40 39 38 36 35 35 35 34 33 32 31 30 30 30 29 29 28 28 27 27 26 26 26 26 26 25 25 24 24 23 23 23 24 24 24 24 24 24 24
46 45 44 44 43 41 40 38 37 36 36 35 34 34 33 32 32 32 31 31 30 30 30 29 29 28 28 28 27 27 27 27 27 26 26 26 26 26 26 26 26 26 26
47 46 45 45 44 42 41 40 39 38 37 36 36 35 35 34 33 33 33 33 32 32 32 31 31 31 30 30 30 29 29 29 29 29 28 28 28 29 28 28 28 28 28
48 47 46 45 44 43 42 41 40 40 39 38 37 37 36 35 35 35 35 35 35 34 33 33 33 33 33 32 32 32 31 31 31 31 31 31 31 31 30 30 30 31 31
48 47 47 46 45 44 44 43 42 41 40 39 38 38 37 37 36 36 36 36 36 36 35 35 35 34 34 34 34 33 33 33 33 33 33 33 33 33 33 33 33 32 33
49 48 47 46 46 45 45 43 42 42 41 41 40 39 39 38 38 37 37 37 37 37 37 37 37 36 36 36 36 36 35 35 34 34 34 34 35 34 35 34 34 34 34
50 49 48 47 47 46 45 44 43 42 42 42 42 41 40 40 39 39 39 39 39 39 39 38 38 38 38 37 37 37 37 36 35 35 35 35 36 35 35 35 35 35 35
51 50 50 48 48 47 46 45 44 44 43 43 42 42 41 41 41 40 40 40 40 40 40 40 39 39 39 39 39 38 37 37 36 35 35 36 36 35 35 36 36 37 36
Wind_Direction
229 226 225 224 223 222 221 221 218 215 216 213 210 206 204 205 204 204 201 199 202 218 238 224 219 220 143 136 136 133 96 67 54 52 50 54 56 57 54 53 47 45 44
230 228 228 227 227 226 225 224 223 222 220 217 214 213 215 218 220 223 224 225 226 233 243 237 236 229 215 212 215 223 232 20 27 30 35 42 41 46 49 45 42 38 37
231 230 230 229 229 229 229 226 225 225 224 222 221 222 221 223 226 230 233 236 239 239 245 246 245 238 235 237 238 245 253 265 305 343 344 351 1 2 17 22 19 18 19
231 231 231 230 230 231 231 229 227 227 226 225 226 227 226 228 230 232 235 239 243 245 250 252 250 246 248 250 250 253 255 260 261 278 292 300 309 317 323 334 348 355 3
231 231 231 231 231 231 231 231 229 228 227 227 228 229 230 231 233 236 239 244 249 250 251 252 251 250 252 255 257 256 257 260 262 264 268 273 286 298 302 305 317 331 340
232 232 231 231 230 230 230 230 230 229 228 229 230 231 231 232 235 238 240 246 250 251 251 250 251 252 256 256 255 254 255 260 262 261 261 264 270 281 287 290 296 308 322
233 232 231 231 230 230 230 231 231 231 230 230 231 232 232 234 237 240 241 245 248 250 250 251 255 255 258 259 255 253 254 256 260 260 261 264 267 272 278 284 288 295 305
233 233 232 232 231 230 231 231 232 232 231 231 232 232 234 236 239 241 242 245 246 248 251 254 256 258 259 261 259 257 257 258 260 261 262 263 267 270 273 277 282 288 296
233 233 233 233 232 232 232 232 232 232 231 232 232 232 234 237 239 240 241 241 243 246 249 252 255 257 258 260 260 261 260 259 261 262 262 262 265 269 272 275 278 284 290
234 234 234 234 233 232 232 232 233 232 232 232 231 231 233 236 238 240 240 239 241 245 249 252 256 257 259 260 261 262 262 259 259 261 263 263 266 270 274 275 275 281 287
233 234 234 235 234 233 233 232 233 232 232 232 232 232 234 236 238 240 241 242 243 246 249 253 256 257 258 259 261 262 264 263 260 262 265 265 266 268 272 275 275 279 284
234 234 234 235 235 235 233 232 233 234 233 234 234 233 235 236 238 240 242 244 245 246 249 252 255 256 256 259 261 262 265 266 263 263 266 266 267 268 270 273 276 278 282
233 233 233 234 235 234 234 234 235 235 235 235 235 234 236 237 238 240 242 244 246 248 250 253 255 255 256 258 259 261 265 268 267 265 265 266 267 269 270 273 276 278 280
233 234 234 234 235 235 235 235 236 236 236 236 236 236 237 238 239 239 241 245 247 248 250 253 254 256 257 258 258 260 263 266 268 266 265 266 267 269 270 272 274 276 279
234 234 234 235 235 236 236 236 237 238 238 237 237 237 238 238 239 240 241 243 246 249 250 253 254 255 257 259 260 260 263 265 266 266 268 267 267 268 270 271 273 276 278
234 235 235 236 236 236 236 236 237 237 238 238 238 238 239 239 239 241 242 244 247 249 250 252 253 253 256 258 261 262 263 265 265 265 267 268 268 268 270 271 273 276 278
234 235 235 236 235 236 236 237 237 237 237 238 239 239 239 240 240 242 244 246 247 249 250 251 252 253 255 258 261 263 264 265 265 266 266 266 268 269 269 270 273 276 278
234 235 235 234 235 236 237 238 238 237 237 237 238 239 239 239 240 241 243 245 247 249 249 250 251 254 256 258 261 262 263 264 266 267 266 267 267 269 271 271 272 274 277
234 235 234 234 235 235 237 237 238 237 237 237 239 240 241 240 240 242 243 245 247 249 249 250 251 254 256 257 260 261 262 263 265 266 267 267 269 270 271 272 272 273 276
233 234 234 234 234 235 236 237 237 237 237 238 239 240 241 240 240 242 244 246 248 250 250 251 252 254 256 257 260 261 261 263 264 265 266 267 267 269 270 271 272 273 276
232 233 233 233 234 235 235 236 237 238 238 239 239 240 241 241 241 243 244 246 248 250 252 253 254 255 256 258 259 261 262 263 264 265 266 267 267 268 269 270 271 273 274
232 232 232 233 234 235 235 236 237 237 238 239 239 240 241 241 242 243 244 246 248 250 251 253 254 255 257 258 259 260 261 262 264 266 267 266 267 268 268 270 272 273 274
231 231 231 232 234 234 235 236 236 237 238 239 240 241 241 242 244 244 245 245 247 249 251 253 254 256 257 258 259 260 262 262 263 264 266 266 267 267 267 268 271 273 273
229 229 230 231 233 234 234 235 236 237 238 239 240 241 242 243 245 246 246 247 248 250 251 252 254 255 256 257 258 260 261 262 262 263 264 265 266 267 268 268 271 273 273
229 228 229 230 232 233 234 235 235 237 238 240 241 242 243 244 245 246 247 247 248 250 251 252 254 255 256 257 259 260 260 261 262 262 262 263 264 266 267 268 271 272 274
229 229 229 231 232 233 234 235 236 238 239 240 242 243 244 245 246 247 248 249 249 249 250 251 253 254 256 256 258 259 259 260 260 262 262 263 264 265 267 268 270 271 274
Height
5843 5845 5846 5848 5849 5851 5852 5853 5855 5856 5857 5858 5859 5860 5862 5863 5864 5865 5866 5866 5867 5868 5869 5869 5870 5871 5871 5872 5872 5873 5873 5874 5874 5874 5874 5874 5875 5875 5875 5875 5875 5875 5874
5841 5842 5844 5846 5847 5849 5851 5852 5853 5854 5856 5857 5858 5859 5861 5862 5863 5864 5865 5866 5867 5868 5868 5869 5870 5870 5871 5872 5872 5873 5873 5873 5874 5874 5874 5875 5875 5875 5875 5875 5875 5875 5875
5838 5840 5841 5843 5845 5847 5849 5850 5851 5853 5854 5856 5857 5858 5860 5861 5862 5863 5864 5865 5866 5867 5868 5869 5869 5870 5871 5871 5872 5872 5873 5873 5874 5874 5874 5875 5875 5875 5875 5875 5875 5875 5875
5835 5837 5839 5840 5842 5844 5846 5848 5849 5851 5853 5854 5855 5857 5858 5859 5861 5862 5863 5864 5865 5866 5867 5868 5869 5869 5870 5871 5871 5872 5872 5873 5873 5874 5874 5874 5875 5875 5875 5875 5875 5875 5875
5832 5834 5836 5838 5839 5841 5843 5845 5847 5849 5850 5852 5853 5855 5856 5858 5859 5861 5862 5863 5864 5865 5866 5867 5867 5868 5869 5870 5870 5871 5872 5872 5873 5873 5874 5874 5874 5874 5875 5875 5875 5875 5875
5828 5830 5832 5834 5836 5838 5840 5842 5844 5846 5848 5850 5851 5853 5854 5856 5857 5859 5860 5861 5862 5863 5864 5865 5866 5867 5868 5869 5869 5870 5871 5871 5872 5872 5873 5873 5874 5874 5874 5874 5874 5874 5874
5824 5826 5829 5831 5833 5835 5837 5839 5841 5843 5845 5847 5849 5851 5852 5854 5855 5857 5858 5859 5860 5862 5863 5864 5865 5866 5866 5867 5868 5869 5869 5870 5871 5871 5872 5872 5873 5873 5873 5873 5874 5874 5874
5820 5822 5824 5827 5829 5831 5834 5836 5838 5840 5842 5844 5846 5848 5850 5851 5853 5854 5856 5857 5858 5860 5861 5862 5863 5864 5865 5866 5866 5867 5868 5869 5869 5870 5871 5871 5871 5872 5872 5872 5872 5873 5873
5815 5818 5820 5823 5825 5827 5830 5832 5834 5836 5839 5841 5843 5845 5847 5849 5850 5852 5853 5855 5856 5857 5859 5860 5861 5862 5863 5864 5865 5865 5866 5867 5868 5868 5869 5870 5870 5870 5871 5871 5871 5871 5871
5810 5813 5815 5818 5821 5823 5825 5828 5830 5832 5835 5837 5839 5841 5844 5845 5847 5849 5851 5852 5854 5855 5857 5858 5859 5860 5861 5862 5863 5864 5864 5865 5866 5867 5867 5868 5868 5869 5869 5869 5869 5869 5870
5805 5808 5810 5813 5816 5818 5821 5823 5826 5828 5831 5833 5835 5838 5840 5842 5844 5846 5848 5849 5851 5852 5854 5855 5856 5858 5859 5859 5860 5861 5862 5863 5864 5865 5865 5866 5866 5867 5867 5867 5867 5867 5868
5799 5802 5805 5808 5811 5813 5816 5818 5821 5823 5826 5829 5831 5834 5836 5838 5840 5842 5844 5846 5848 5849 5851 5852 5854 5855 5856 5857 5858 5859 5860 5861 5862 5862 5863 5863 5864 5864 5865 5865 5865 5865 5865
5793 5796 5799 5802 5805 5808 5811 5813 5816 5819 5821 5824 5827 5829 5832 5834 5836 5838 5841 5843 5844 5846 5847 5849 5850 5851 5853 5854 5855 5856 5857 5858 5859 5860 5860 5861 5861 5862 5862 5862 5863 5863 5863
5786 5789 5793 5796 5799 5802 5805 5808 5810 5813 5816 5819 5821 5824 5827 5829 5832 5834 5836 5838 5840 5842 5844 5845 5847 5848 5849 5851 5852 5853 5854 5855 5856 5856 5857 5858 5858 5859 5859 5860 5860 5860 5860
5778 5782 5786 5789 5792 5795 5798 5801 5804 5807 5810 5813 5816 5819 5821 5824 5827 5829 5832 5834 5836 5838 5840 5841 5843 5844 5845 5847 5848 5849 5850 5851 5852 5853 5854 5854 5855 5856 5856 5856 5856 5857 5857
5771 5774 5778 5782 5785 5788 5791 5794 5797 5800 5803 5806 5809 5812 5815 5818 5821 5824 5826 5829 5831 5833 5835 5837 5839 5840 5841 5843 5844 5845 5846 5847 5848 5849 5850 5851 5851 5852 5852 5852 5853 5853 5853
5762 5766 5770 5774 5777 5781 5784 5787 5791 5794 5797 5800 5803 5806 5809 5812 5815 5818 5821 5823 5825 5827 5830 5832 5834 5835 5837 5838 5840 5841 5842 5843 5844 5845 5846 5846 5847 5848 5848 5848 5849 5849 5849
5752 5757 5761 5765 5770 5773 5777 5780 5783 5787 5790 5793 5796 5800 5803 5806 5809 5812 5815 5817 5819 5822 5824 5826 5828 5830 5832 5833 5835 5836 5837 5838 5839 5840 5841 5842 5842 5843 5843 5844 5844 5844 5844
5742 5747 5752 5757 5761 5766 5769 5773 5776 5779 5783 5786 5790 5793 5796 5799 5802 5805 5808 5811 5814 5816 5818 5821 5823 5825 5826 5828 5829 5830 5832 5833 5834 5835 5835 5836 5837 5838 5838 5839 5839 5839 5839
5732 5737 5743 5748 5753 5757 5761 5765 5768 5772 5775 5779 5783 5786 5789 5792 5795 5799 5802 5805 5807 5810 5812 5814 5816 5818 5820 5822 5823 5824 5826 5827 5828 5829 5830 5831 5832 5832 5833 5833 5833 5834 5834
5721 5727 5733 5739 5744 5748 5753 5757 5761 5765 5768 5772 5775 5779 5782 5785 5789 5792 5795 5798 5800 5803 5805 5808 5810 5811 5813 5815 5817 5818 5819 5821 5822 5823 5824 5825 5825 5826 5827 5827 5827 5828 5828
5711 5717 5723 5729 5735 5740 5745 5749 5753 5757 5760 5764 5768 5771 5774 5778 5781 5784 5788 5790 5793 5796 5798 5800 5802 5804 5806 5808 5810 5811 5812 5814 5815 5816 5817 5818 5819 5819 5820 5820 5821 5821 5821
5701 5707 5714 5720 5725 5731 5735 5739 5744 5748 5752 5756 5760 5763 5767 5770 5773 5776 5780 5783 5785 5788 5790 5793 5795 5797 5799 5800 5802 5804 5805 5807 5808 5809 5810 5811 5811 5812 5813 5813 5814 5814 5814
5691 5697 5704 5710 5716 5721 5726 5730 5735 5739 5744 5748 5752 5755 5759 5762 5765 5768 5771 5774 5777 5779 5782 5784 5786 5789 5790 5792 5794 5795 5797 5799 5800 5802 5803 5803 5803 5804 5805 5806 5806 5806 5806
5681 5687 5694 5700 5706 5711 5716 5721 5726 5731 5735 5739 5743 5746 5750 5753 5756 5760 5763 5766 5768 5771 5773 5775 5778 5780 5782 5784 5785 5787 5788 5790 5791 5793 5795 5795 5796 5796 5797 5798 5798 5798 5798
5671 5677 5684 5690 5696 5701 5707 5712 5717 5721 5725 5729 5733 5737 5741 5744 5747 5751 5754 5756 5759 5762 5764 5766 5769 5771 5773 5775 5776 5778 5780 5781 5783 5784 5786 5787 5788 5788 5789 5789 5790 5790 5790